Skip Navigation Links
NOAA logo - Click to go to the NOAA homepage
NOAA's National Weather Service
Alaska Aviation Weather Unit
  NWS logo - Click to go to the NWS homepage
Left Navbar Graphic     09 AKDT = 17 GMT

   
NOAA is celebrating 200 years of science, service, and stewardship. Visit the NOAA 200th celebration Web site to learn more.
USA.gov is the U.S. Government's official Web portal to all Federal, state and local government Web resources and services.
Facebook
NWS on Facebook

Important Change Regarding the AAWU Web Presence

 

Over the last several months, the AAWU has been working to navigate its webpages to a nationally supported server. Security, as well as other needs, have necessitated the change.  In the process, we have made an effort to enhance the functionality of our website, as well as some of our products. As of June 20, 2017, aawu.arh.noaa.gov will be discontinued. The new AAWU web address is weather.gov/aawu. It is now live and will run in-parallel with the old site until it is discontinued. Please send any feedback or questions regarding the new webpages to nws.ar.aawu.webauthors@noaa.gov.  Thank you for your patience during this time of transition.
AAWU Home :: Display TAF Add Bookmark
METAR PABV 271156Z AUTO 00000KT 10SM SCT070 OVC085 05/01 A3014 RMK AO2
     SLP215 T00500011 10078 20050 52003 $=

METAR PABV 271256Z AUTO 00000KT 10SM OVC080 04/02 A3014 RMK AO2 SLP214
     T00390017 $=

METAR PABV 271356Z AUTO 06005KT 10SM OVC075 04/01 A3013 RMK AO2 SLP212
     T00390006 $=

METAR PABV 271456Z AUTO 00000KT 10SM OVC070 05/01 A3013 RMK AO2 SLP211
     T00500011 56004 $=

METAR PABV 271556Z AUTO 00000KT 10SM SCT060 OVC095 06/01 A3013 RMK AO2
     SLP212 T00560011 $=

METAR PABV 271656Z AUTO 04003KT 10SM BKN075 OVC095 07/01 A3013 RMK AO2
     SLP211 T00670011 $=


NOAA's National Weather Service
Alaska Aviation Weather Unit
6930 Sand Lake Road
Anchorage, AK 99502-1845
Disclaimer
Credits
Glossary
Privacy Policy
About Us
Career Opportunities
Contact AAWU Internet Services Site last modified: April, 17th 2012